This is the latest recevied weather packets stored in our database for station/object KD0RIH. If no packets are shown the sender has not sent any weather packets the latest 10 day(s).
| Time | Temp. | Humidity | Pressure | Rain* | Wind** | Luminosity | Snow |
|---|---|---|---|---|---|---|---|
| 1777159874 | 23.33° C | 40% | 1010.1 hPa | 0 mm | - | 98 W/m² | - |
| 1777159570 | 23.33° C | 39% | 1010 hPa | 0 mm | - | 97 W/m² | - |
| 1777159267 | 23.89° C | 39% | 1010.1 hPa | 0 mm | - | 93 W/m² | - |
| 1777158963 | 23.89° C | 38% | 1010.2 hPa | 0 mm | - | 90 W/m² | - |
| 1777158662 | 23.89° C | 37% | 1010.1 hPa | 0 mm | - | 118 W/m² | - |
| 1777158358 | 24.44° C | 36% | 1010.3 hPa | 0 mm | - | 153 W/m² | - |
| 1777158055 | 24.44° C | 38% | 1010.3 hPa | 0 mm | - | 181 W/m² | - |
| 1777157750 | 23.89° C | 37% | 1010.4 hPa | 0 mm | - | 212 W/m² | - |
| 1777157446 | 23.89° C | 38% | 1010.2 hPa | 0 mm | - | 221 W/m² | - |
| 1777157143 | 24.44° C | 37% | 1010.3 hPa | 0 mm | - | 144 W/m² | - |
| 1777156838 | 24.44° C | 36% | 1010.5 hPa | 0 mm | - | 190 W/m² | - |
| 1777156538 | 24.44° C | 35% | 1010.5 hPa | 0 mm | - | 277 W/m² | - |
| 1777156235 | 24.44° C | 34% | 1010.4 hPa | 0 mm | - | 345 W/m² | - |
| 1777155930 | 24.44° C | 35% | 1010.6 hPa | 0 mm | - | 254 W/m² | - |
| 1777155626 | 24.44° C | 35% | 1010.5 hPa | 0 mm | - | 379 W/m² | - |
| 1777155323 | 23.89° C | 36% | 1010.5 hPa | 0 mm | - | 454 W/m² | - |
| 1777155021 | 23.89° C | 35% | 1010.6 hPa | 0 mm | - | 340 W/m² | - |
| 1777154718 | 24.44° C | 34% | 1010.5 hPa | 0 mm | - | 259 W/m² | - |
| 1777154414 | 24.44° C | 36% | 1010.4 hPa | 0 mm | - | 351 W/m² | - |
| 1777154109 | 24.44° C | 35% | 1010.4 hPa | 0 mm | - | 383 W/m² | - |
| 1777153805 | 25° C | 35% | 1010.3 hPa | 0 mm | - | 437 W/m² | - |
| 1777153502 | 24.44° C | 34% | 1010.2 hPa | 0 mm | - | 342 W/m² | - |
| 1777153197 | 24.44° C | 35% | 1010.1 hPa | 0 mm | - | 493 W/m² | - |
| 1777152895 | 24.44° C | 35% | 1010.1 hPa | 0 mm | - | 547 W/m² | - |
| 1777152591 | 24.44° C | 34% | 1010.1 hPa | 0 mm | - | 623 W/m² | - |
* Rain latest hour (hover to see other rain measurements)
** Current wind speed in m/s (hover to see current wind gust speed)